Dewpoint
1 1 1 1 1 2 1 2 1 1 -3 2 1 1 -0 -3 -5 -4 -3 -5 -5 -4 -2 -2 -2 3 3 -2 -4 -2 -3 0 1 0 -2 -4 -3 -1 -0 5 6 6 6 5
0 0 1 1 1 2 1 1 1 1 -2 1 2 -1 0 -2 -1 -3 -4 -4 -5 -5 -3 -1 -1 3 -1 -0 -1 -2 -3 -1 2 2 -1 -2 -2 -2 -1 0 4 6 7 6
1 1 1 1 1 2 2 1 1 1 2 -0 -2 -0 0 0 -2 -2 -3 -3 -4 -4 -3 -3 1 3 3 3 0 -3 -3 -0 -0 2 2 1 0 -1 -1 1 6 5 6 4
0 -1 -2 1 2 2 2 0 1 0 2 1 -0 -2 -1 -0 0 -3 -3 -2 -2 -3 -2 -2 2 3 5 4 3 -0 -0 -1 -1 0 -1 0 1 1 -1 -0 3 6 5 5
-1 -2 -1 1 2 2 2 -1 1 1 -2 -0 1 0 -0 -1 -1 -3 -1 -2 -4 -3 -2 -3 2 6 6 7 6 6 1 2 -0 1 0 -0 1 -0 0 -1 -2 4 4 5
-4 -4 -4 -2 0 0 2 1 -1 -1 -1 1 2 1 -0 -0 -2 -3 -4 -3 -4 -3 -4 -3 4 5 6 7 7 6 6 4 4 3 1 1 3 1 -0 -0 -1 -1 4 2
-3 -2 -2 -3 -3 -1 1 1 0 1 2 -0 1 -1 -1 -1 -2 -2 -4 -4 -5 -6 -3 3 4 4 4 4 6 7 7 4 5 5 4 6 1 -2 -2 -1 -2 -4 -5 -6
-0 -1 -1 -2 -3 -2 -1 0 1 -0 2 -1 -1 0 -1 -2 -2 -2 -2 -4 -5 -8 -8 3 6 6 5 4 6 6 5 6 7 6 5 2 1 -1 -1 0 -0 -4 -5 -6
1 1 0 -0 -2 -2 -2 -0 0 1 0 1 -3 -1 -1 -1 -1 -2 -2 -3 -4 -6 -1 2 4 6 6 7 5 5 6 5 6 7 7 6 3 0 -1 -2 2 -3 -3 -3
0 -0 -1 0 -0 -2 -1 -0 -0 1 1 -1 -2 -2 -1 -2 -2 -1 -2 -3 -3 -4 -0 2 3 5 3 6 6 5 6 6 7 8 8 7 3 -1 -2 3 2 -2 -3 -2
0 -0 0 -1 0 0 0 -0 -0 1 1 -0 -2 -1 -1 -2 -2 -0 -2 -1 -1 3 2 2 2 2 2 2 1 5 6 6 7 7 7 8 3 2 1 1 -1 -1 -3 -1
0 0 -0 0 -1 1 -0 -0 -1 -1 1 2 -2 -2 0 -0 -1 -0 -1 -3 -3 3 2 3 3 2 2 1 1 -1 5 4 5 4 6 4 3 3 -0 3 3 0 1 -1
-2 0 -1 0 -1 0 -0 -0 -2 -0 0 2 2 1 -2 -1 1 1 2 -1 -3 2 2 3 4 2 1 2 2 -2 1 1 4 4 3 3 1 2 2 3 4 2 1 0
-0 -0 0 -0 -0 0 -0 0 -1 -1 0 2 2 1 1 0 1 1 0 -1 1 1 1 3 4 4 0 1 2 1 1 2 4 4 2 2 1 -1 1 0 2 -2 -2 -0
0 -0 1 1 0 -0 -0 -1 -2 -1 1 1 2 0 2 -1 -2 -0 -3 -2 1 2 3 3 3 3 2 2 2 2 -2 -2 4 5 3 2 0 -1 2 1 1 1 1 0
0 0 -0 -0 -0 -0 0 1 0 0 0 1 2 1 1 -1 -2 -4 -1 -0 1 2 1 3 3 1 2 3 1 -3 -4 -5 -5 -4 -7 -7 -8 -6 -1 -2 -1 -1 0 0
0 -0 -0 0 -0 -0 -0 0 -1 1 1 -0 1 0 0 -1 -3 -2 -0 1 1 2 2 4 3 2 3 2 2 0 0 -0 -4 -2 -1 -1 -3 -2 1 1 1 1 0 1
-0 -0 -0 -0 0 1 1 1 -0 1 -2 -2 -0 0 0 1 2 2 -0 1 2 2 3 3 4 2 3 4 2 2 3 3 3 3 4 4 2 2 2 2 2 1 1 1
-0 -0 -0 -0 0 0 1 1 -0 -1 -1 -0 -1 -0 2 1 2 1 1 1 0 2 2 2 4 4 3 1 0 1 1 2 2 3 3 3 3 3 3 2 2 2 1 1
0 -1 -1 -0 -1 -1 -1 -0 -1 -2 -2 -2 -1 -1 -1 -1 0 1 1 1 0 2 2 1 3 2 -1 -2 -1 -1 -0 1 2 3 3 2 3 3 2 2 2 1 1 1
-1 -0 -1 -1 0 0 0 -0 -1 -2 -1 -0 -1 1 0 0 1 2 3 2 -0 0 1 2 4 -1 -2 -2 -3 -3 -2 -1 1 1 2 2 2 2 2 2 2 1 1 1
-1 -2 -1 -0 1 1 -1 -1 -0 -1 -0 -1 -1 1 0 0 0 0 2 3 1 2 1 3 0 -2 -3 -3 -4 -4 -4 -3 -2 -0 0 1 1 1 1 1 1 1 0 -1
-0 -0 0 -1 -1 -1 -2 -0 -1 1 -1 -1 1 1 1 0 -0 -0 1 2 3 2 1 -1 -3 -3 -4 -4 -5 -5 -5 -4 -4 -4 -3 -3 -2 -1 -1 -1 -2 -1 -2 -3
-2 -1 -3 -2 -2 -2 -3 -3 -2 -2 -2 -2 -1 1 1 -0 -0 1 3 1 1 2 -1 -4 -5 -4 -5 -5 -5 -6 -6 -6 -6 -6 -6 -6 -5 -5 -5 -5 -6 -5 -6 -6
-6 -7 -4 -5 -4 -5 -5 -5 -3 -3 -4 -3 -1 1 1 1 1 0 1 -0 -3 -3 -5 -5 -6 -6 -6 -6 -7 -7 -7 -8 -8 -8 -8 -8 -7 -7 -8 -7 -7 -7 -7 -7
-8 -8 -7 -7 -9 -9 -6 -6 -5 -5 -4 -2 -1 0 0 -1 -2 -3 -3 -4 -5 -6 -7 -7 -8 -7 -7 -7 -8 -8 -8 -8 -9 -9 -9 -9 -9 -9 -9 -8 -8 -8 -8 -8
-6 -6 -7 -7 -7 -6 -6 -6 -6 -4 -3 -2 -3 -5 -3 -4 -6 -6 -5 -6 -7 -8 -9 -9 -9 -9 -9 -8 -8 -8 -8 -9 -9 -9 -9 -9 -9 -8 -9 -10 -10 -10 -10 -10
Wind_Speed
38 38 36 35 33 30 28 25 5 14 34 15 13 21 17 18 14 24 14 8 14 18 17 13 10 12 16 20 19 24 14 6 11 13 14 22 16 15 9 5 4 4 5 5
40 39 38 36 36 36 36 15 10 25 47 12 19 21 26 25 19 20 6 12 10 13 18 9 6 6 11 26 12 18 14 15 5 6 9 4 13 6 6 7 4 6 5 4
38 36 36 38 40 40 43 15 6 14 37 37 24 24 22 22 16 24 20 19 21 22 21 15 10 6 7 28 16 30 22 7 15 14 5 4 6 10 11 9 3 3 5 5
35 37 39 39 42 44 51 20 7 15 15 24 20 18 7 23 17 24 20 13 25 20 13 16 8 5 9 17 18 4 10 19 15 8 18 12 16 11 14 18 15 9 7 12
35 34 33 36 40 41 53 14 9 20 12 23 22 20 25 28 15 15 16 21 17 16 20 19 4 4 3 4 12 9 3 3 15 19 12 11 11 17 7 8 10 11 14 18
36 37 38 38 38 44 30 38 35 23 15 11 14 26 33 23 17 22 33 21 20 21 18 18 7 7 4 5 5 9 10 5 5 13 12 10 14 12 14 14 14 11 14 15
40 41 41 43 45 47 44 30 34 12 6 17 22 22 25 21 20 20 24 26 14 37 9 6 9 5 5 4 7 9 15 5 4 4 5 13 5 9 7 11 12 7 5 3
42 43 44 46 48 50 50 26 33 21 8 18 22 21 17 26 25 25 19 30 29 23 26 4 3 3 3 3 5 5 18 3 2 5 9 5 16 7 5 7 11 7 6 5
44 45 49 50 50 50 50 39 36 29 16 12 33 17 24 12 15 15 24 39 27 23 5 6 11 4 3 2 4 6 14 3 5 3 2 15 2 8 11 5 9 5 2 6
39 41 44 51 53 53 51 41 30 25 13 23 22 16 16 26 17 11 15 17 17 18 4 4 5 7 5 3 5 5 2 4 3 3 3 6 5 9 13 7 4 8 14 7
41 42 43 46 53 52 52 41 37 33 8 24 27 17 18 19 22 11 8 10 13 3 4 7 5 4 8 6 9 6 7 6 4 3 4 6 8 10 9 1 19 21 22 10
42 41 44 46 47 56 54 34 43 41 15 8 35 33 24 16 18 14 23 13 5 6 3 2 2 2 4 7 10 5 3 6 7 8 7 10 3 5 9 20 23 12 10 3
36 44 39 43 46 50 57 35 46 43 7 5 18 22 30 21 19 21 4 12 13 14 12 3 2 4 4 3 6 7 6 8 5 5 7 13 18 3 14 16 26 27 16 4
36 40 36 41 46 54 53 34 38 40 9 4 4 17 20 25 26 18 18 11 5 1 19 3 2 3 4 4 4 5 5 10 3 3 8 6 9 17 24 21 33 32 27 18
34 38 34 43 54 56 42 33 30 44 4 3 8 14 14 17 16 14 13 16 8 1 3 2 3 5 3 3 1 4 4 5 4 4 12 11 9 4 11 17 19 20 20 20
35 36 40 44 42 47 33 12 33 29 12 4 2 6 15 12 9 10 12 12 8 3 6 4 8 4 3 2 3 3 11 5 6 4 9 17 17 17 14 16 17 17 17 17
35 36 39 37 43 37 22 7 35 32 8 4 2 2 8 13 8 6 7 14 7 6 3 7 7 9 2 1 1 10 19 17 17 15 17 16 23 11 7 7 9 13 15 14
38 40 42 39 21 28 26 27 35 19 9 5 3 1 4 10 5 2 5 6 10 6 4 5 3 2 4 2 9 21 28 23 18 23 15 11 12 8 6 6 10 12 13 13
46 41 36 22 12 13 25 30 22 13 6 3 3 3 2 1 1 4 5 8 1 7 2 2 3 0 2 7 15 17 19 17 22 22 15 14 14 11 7 5 6 9 9 7
27 24 11 8 14 27 22 9 4 2 3 3 2 4 2 3 3 3 3 8 3 2 4 1 4 3 9 20 16 15 15 16 20 19 20 18 14 12 13 11 5 3 2 4
12 6 7 28 15 5 4 4 3 2 1 5 5 6 3 6 2 2 4 2 2 3 3 6 1 3 9 20 18 14 12 10 8 8 8 9 10 8 8 6 5 5 6 8
7 18 16 5 3 3 4 2 1 2 1 2 3 5 6 5 4 2 4 2 2 3 0 4 3 5 18 19 15 16 13 9 6 5 4 4 5 7 8 10 10 9 11 14
10 5 5 3 5 5 4 1 2 2 4 8 7 1 6 4 7 2 2 2 1 2 4 4 3 13 17 16 14 14 15 14 14 15 14 14 14 14 14 15 14 14 16 17
8 6 6 4 5 4 4 4 3 5 6 13 11 2 1 3 3 1 3 2 4 4 4 4 4 15 16 14 14 16 18 20 22 22 22 24 24 25 23 22 20 22 25 24
8 8 5 4 5 10 10 13 7 11 15 14 5 2 4 3 3 4 5 4 4 5 3 2 14 18 18 19 19 20 22 23 25 26 28 29 29 31 31 29 28 28 28 27
6 9 4 13 4 5 10 10 8 11 15 8 3 3 3 4 3 4 6 3 5 3 2 13 17 22 23 24 25 25 26 28 31 32 33 33 34 34 34 32 32 32 31 31
5 4 15 9 3 5 11 11 13 11 7 2 2 5 5 3 4 4 5 4 3 9 15 17 18 23 24 25 27 29 30 33 34 34 33 34 33 33 34 35 31 30 28 27
Wind_Direction
259 254 251 244 237 225 210 201 208 184 182 194 213 223 218 237 249 228 258 282 283 286 296 302 307 234 264 282 205 206 199 189 234 250 280 208 202 204 190 156 251 221 159 265
258 253 246 238 232 221 204 199 171 180 181 201 220 225 235 244 261 233 261 257 243 277 277 283 270 290 283 312 254 207 189 216 246 305 265 253 194 206 203 212 155 215 168 242
253 245 239 236 228 220 204 181 168 172 199 213 213 219 232 243 241 242 254 260 274 280 287 267 277 311 316 347 290 217 180 183 216 227 247 185 211 214 221 204 181 228 223 218
246 246 243 236 223 216 203 186 202 186 203 212 217 208 229 229 237 217 210 252 248 252 275 284 257 317 339 328 302 248 187 215 203 216 215 224 235 242 229 220 219 200 255 274
245 239 234 218 214 207 201 178 182 192 230 207 205 226 223 234 228 225 213 231 245 236 250 249 261 27 357 256 315 337 284 235 199 221 241 247 235 243 261 252 229 202 208 233
243 240 236 233 217 210 207 205 210 178 206 187 193 214 229 231 224 261 233 226 232 250 254 279 159 132 140 274 289 310 295 172 173 226 222 254 265 221 217 256 257 195 206 220
243 238 233 229 224 220 218 206 195 204 197 193 211 211 223 229 238 230 259 230 226 240 276 104 81 16 330 256 235 254 292 248 150 182 119 224 236 182 200 225 250 248 247 274
243 237 232 226 224 222 220 214 191 194 213 201 210 209 213 219 223 243 252 252 253 249 245 245 19 329 322 235 227 265 303 176 97 161 205 277 258 238 201 221 270 227 225 254
247 239 233 223 221 221 220 221 202 202 199 205 205 197 206 205 215 232 246 252 256 263 194 194 221 227 243 302 289 160 282 42 113 35 206 232 145 246 276 309 262 263 232 267
236 234 228 227 216 215 214 213 221 212 194 204 199 197 205 207 211 217 229 240 246 245 237 203 178 218 193 201 153 206 244 21 55 61 277 295 284 200 229 227 255 276 260 270
235 229 222 217 218 212 204 204 211 205 202 204 200 200 214 204 213 217 230 219 226 174 180 199 190 166 201 168 243 186 168 138 150 132 266 252 268 335 177 31 308 279 274 334
230 224 218 213 207 212 198 194 199 195 235 188 201 214 196 190 225 222 242 217 213 163 154 191 157 277 167 179 225 191 152 175 175 176 204 233 312 325 294 27 332 303 347 17
221 209 206 203 200 201 190 190 197 203 261 147 157 176 207 222 229 216 236 248 229 183 165 140 260 215 156 163 216 196 210 187 179 124 243 241 257 342 286 316 320 313 314 24
177 187 195 187 189 186 176 171 187 185 232 137 172 161 186 195 213 216 239 237 258 92 196 156 141 261 219 213 215 186 202 166 154 3 303 288 244 238 235 257 284 291 297 310
144 151 160 170 169 173 166 171 182 180 231 115 124 142 193 200 191 203 220 232 263 255 110 318 198 237 351 299 123 245 205 189 143 207 238 234 219 202 207 218 229 286 311 315
132 141 146 149 159 170 149 132 175 175 124 87 134 129 175 186 200 210 224 220 214 222 181 151 272 270 213 217 229 244 213 256 283 225 278 282 281 283 271 262 281 303 314 320
128 134 139 148 150 159 170 191 179 166 160 138 97 111 172 177 172 191 203 210 199 177 223 189 187 246 78 14 348 333 349 337 305 337 343 323 284 259 238 270 293 304 310 307
122 127 136 137 119 104 107 124 143 151 93 77 99 163 90 166 158 198 193 204 195 190 214 186 158 278 215 117 337 356 3 5 15 1 0 324 284 236 236 290 309 321 318 314
115 124 124 111 76 83 105 126 124 105 99 108 76 118 148 345 170 193 192 205 126 191 146 267 108 32 96 4 355 354 353 350 336 350 1 27 62 53 33 356 346 345 355 343
108 112 69 57 96 109 109 98 95 123 58 71 123 118 106 115 337 241 209 186 207 157 184 111 124 76 44 12 352 342 341 336 355 9 17 10 11 19 44 80 68 15 65 95
81 58 80 125 124 102 78 79 76 112 44 175 181 167 145 193 136 273 245 233 198 122 231 163 149 68 13 359 354 350 348 351 359 13 24 18 14 28 116 96 101 123 133 142
118 126 121 106 51 74 91 90 59 152 227 144 147 154 159 148 166 192 275 202 26 184 124 77 56 19 6 1 357 1 11 11 5 7 9 359 33 78 103 105 103 110 122 139
81 83 76 20 360 61 49 69 27 44 360 2 3 141 133 124 182 216 273 175 157 23 60 79 29 358 10 11 16 31 43 56 65 70 78 86 91 95 94 96 101 117 123 125
54 36 39 31 27 49 30 357 347 328 334 332 320 137 134 143 174 227 209 66 37 43 60 74 356 5 26 37 46 60 63 72 77 80 83 84 85 85 85 88 94 101 101 106
53 30 42 44 19 44 11 4 349 351 341 348 348 45 51 26 41 8 21 59 82 32 61 40 9 30 52 59 65 70 74 79 84 87 88 89 90 90 90 92 95 98 101 102
61 40 21 348 35 359 5 8 342 334 339 345 326 16 79 56 46 51 12 70 41 52 36 36 45 50 62 68 74 80 83 83 84 86 88 91 91 92 95 95 94 95 97 97
47 70 36 12 359 340 344 358 330 334 331 28 25 50 7 21 54 46 19 42 74 72 49 59 75 75 74 87 90 88 85 82 82 87 90 92 95 96 93 91 92 93 94 94
Height
1398 1402 1406 1412 1418 1425 1431 1435 1437 1440 1450 1459 1450 1432 1423 1431 1427 1434 1435 1429 1428 1426 1423 1426 1425 1421 1414 1402 1402 1409 1413 1425 1436 1423 1412 1408 1418 1428 1435 1461 1456 1453 1469 1463
1384 1388 1393 1400 1406 1413 1421 1425 1431 1438 1438 1436 1427 1424 1422 1431 1431 1431 1432 1429 1424 1422 1422 1430 1417 1411 1402 1405 1399 1398 1407 1416 1438 1430 1420 1408 1414 1419 1424 1428 1437 1451 1466 1458
1370 1375 1380 1386 1394 1402 1410 1417 1421 1427 1427 1419 1414 1417 1423 1424 1426 1429 1427 1426 1429 1427 1423 1417 1417 1411 1405 1406 1396 1389 1394 1410 1413 1427 1426 1414 1420 1417 1419 1424 1447 1445 1447 1436
1357 1363 1368 1374 1380 1389 1397 1400 1399 1399 1401 1399 1413 1421 1414 1420 1419 1420 1423 1423 1419 1421 1424 1419 1415 1414 1412 1407 1402 1391 1394 1402 1403 1409 1408 1408 1413 1415 1413 1416 1420 1432 1431 1436
1345 1351 1357 1360 1367 1377 1381 1384 1386 1392 1391 1403 1414 1416 1403 1405 1407 1413 1415 1417 1414 1420 1418 1415 1413 1416 1417 1419 1408 1409 1392 1403 1401 1409 1406 1406 1411 1405 1409 1407 1409 1415 1420 1425
1334 1339 1345 1350 1358 1366 1360 1369 1377 1383 1385 1395 1406 1390 1383 1394 1414 1409 1410 1409 1413 1414 1409 1412 1407 1411 1418 1419 1420 1414 1418 1403 1406 1410 1406 1407 1419 1404 1404 1403 1401 1405 1419 1409
1321 1326 1332 1339 1346 1351 1359 1355 1370 1378 1374 1383 1377 1385 1392 1400 1405 1404 1403 1404 1406 1393 1415 1412 1410 1415 1416 1419 1414 1421 1420 1401 1404 1421 1415 1425 1394 1388 1391 1396 1394 1392 1393 1393
1306 1311 1318 1325 1333 1341 1349 1346 1357 1363 1368 1369 1377 1384 1385 1395 1399 1399 1400 1395 1400 1408 1409 1415 1421 1422 1417 1408 1409 1411 1413 1400 1412 1411 1409 1397 1387 1385 1389 1394 1396 1386 1387 1388
1287 1293 1301 1311 1320 1330 1340 1344 1350 1357 1361 1360 1365 1376 1382 1387 1392 1396 1394 1393 1399 1403 1401 1409 1411 1418 1411 1413 1403 1408 1414 1397 1405 1418 1415 1407 1389 1383 1382 1384 1396 1381 1381 1385
1271 1278 1286 1295 1306 1318 1330 1338 1346 1351 1352 1356 1362 1366 1371 1378 1384 1385 1389 1390 1395 1396 1399 1409 1416 1411 1408 1410 1412 1419 1417 1408 1415 1418 1419 1405 1380 1375 1379 1400 1399 1378 1377 1379
1255 1263 1273 1283 1294 1307 1319 1328 1339 1347 1345 1347 1353 1360 1365 1371 1376 1382 1382 1391 1388 1391 1399 1396 1402 1406 1399 1401 1397 1399 1399 1408 1416 1420 1421 1415 1380 1378 1383 1385 1383 1380 1377 1378
1238 1249 1260 1272 1284 1298 1312 1322 1333 1344 1348 1346 1350 1357 1363 1366 1372 1377 1378 1376 1375 1381 1389 1390 1390 1399 1395 1394 1395 1384 1399 1392 1401 1402 1402 1384 1380 1377 1376 1380 1387 1384 1379 1374
1223 1237 1251 1264 1278 1293 1303 1315 1327 1341 1346 1341 1348 1350 1355 1364 1370 1372 1377 1373 1375 1374 1378 1387 1388 1389 1384 1396 1389 1382 1376 1377 1382 1384 1382 1381 1378 1376 1377 1381 1385 1382 1380 1373
1213 1233 1246 1259 1275 1290 1299 1313 1323 1337 1341 1339 1347 1347 1356 1362 1364 1367 1374 1372 1373 1375 1376 1382 1391 1393 1373 1381 1375 1376 1371 1371 1374 1379 1375 1375 1373 1372 1376 1381 1379 1377 1375 1372
1224 1236 1248 1259 1270 1288 1305 1317 1323 1332 1337 1336 1343 1348 1357 1360 1361 1364 1366 1369 1372 1375 1378 1383 1385 1380 1375 1369 1369 1373 1365 1366 1375 1381 1375 1378 1375 1374 1374 1374 1377 1375 1370 1366
1241 1248 1258 1270 1284 1297 1307 1317 1329 1335 1335 1339 1348 1351 1354 1356 1359 1361 1363 1366 1369 1373 1371 1380 1382 1374 1376 1382 1377 1363 1362 1362 1363 1365 1363 1367 1369 1370 1369 1369 1370 1369 1369 1366
1256 1264 1273 1283 1295 1305 1310 1313 1314 1328 1336 1342 1349 1351 1353 1357 1358 1361 1363 1365 1367 1369 1372 1375 1378 1378 1377 1380 1377 1366 1366 1363 1362 1362 1359 1360 1361 1362 1363 1363 1363 1364 1365 1365
1272 1279 1287 1292 1297 1306 1312 1318 1325 1335 1336 1342 1349 1353 1354 1357 1359 1361 1361 1361 1363 1363 1367 1369 1373 1374 1376 1378 1383 1373 1366 1363 1362 1363 1362 1361 1360 1359 1359 1360 1360 1362 1363 1362
1286 1292 1300 1302 1306 1312 1319 1324 1330 1335 1342 1343 1348 1353 1355 1357 1357 1360 1361 1361 1364 1360 1362 1362 1363 1369 1379 1388 1384 1379 1377 1376 1372 1366 1363 1360 1358 1359 1359 1358 1359 1360 1362 1362
1296 1300 1303 1312 1316 1321 1327 1335 1340 1342 1343 1344 1349 1349 1357 1359 1361 1360 1360 1356 1360 1361 1358 1361 1366 1376 1387 1388 1387 1384 1379 1376 1372 1367 1363 1360 1360 1361 1361 1359 1359 1361 1363 1364
1307 1311 1316 1322 1324 1326 1330 1335 1339 1341 1345 1344 1346 1349 1354 1358 1360 1358 1354 1354 1352 1360 1355 1362 1367 1387 1392 1391 1389 1386 1380 1377 1374 1373 1370 1369 1366 1363 1361 1361 1361 1363 1364 1365
1309 1314 1323 1326 1328 1329 1333 1341 1342 1343 1345 1343 1345 1347 1349 1352 1355 1358 1352 1351 1352 1353 1348 1358 1380 1394 1392 1392 1390 1386 1381 1377 1374 1371 1370 1369 1366 1365 1364 1364 1364 1365 1366 1368
1316 1320 1325 1329 1333 1336 1344 1342 1345 1342 1345 1348 1346 1348 1347 1351 1354 1355 1351 1351 1350 1350 1361 1388 1403 1400 1397 1394 1392 1388 1383 1378 1375 1372 1370 1368 1366 1366 1366 1366 1367 1368 1368 1371
1321 1327 1337 1341 1347 1353 1357 1357 1355 1354 1352 1348 1344 1344 1346 1348 1351 1350 1345 1353 1354 1360 1376 1400 1407 1403 1400 1397 1393 1389 1388 1384 1380 1378 1375 1373 1372 1371 1372 1372 1374 1374 1375 1379
1335 1342 1353 1359 1360 1361 1361 1359 1356 1354 1350 1348 1345 1345 1347 1348 1349 1353 1351 1362 1382 1391 1405 1408 1409 1405 1402 1400 1397 1395 1393 1389 1386 1384 1382 1382 1381 1380 1381 1383 1383 1384 1386 1389
1350 1360 1364 1364 1363 1364 1362 1362 1359 1356 1352 1350 1350 1349 1352 1359 1366 1371 1378 1383 1395 1410 1412 1413 1410 1407 1404 1404 1401 1401 1399 1397 1394 1392 1391 1391 1390 1390 1391 1392 1393 1395 1397 1399
1362 1370 1372 1370 1368 1368 1365 1362 1361 1358 1357 1356 1356 1367 1370 1369 1382 1395 1399 1408 1415 1416 1416 1416 1414 1412 1412 1410 1407 1406 1405 1403 1403 1403 1402 1402 1402 1401 1401 1402 1406 1406 1408 1409